Location: G�migny
(47.9646°N, 1.6950°E)
Time: 11:37:32
(UTC+00:00)

YAOGAN 6 - Pass Details

Date: 25 January 2020
Orbit: 465 x 506 km, 97.0° (Epoch: 23 February)

Event Time Altitude Azimuth Distance (km) Brightness Sun altitude
Rises 05:40:31 0° 31° (NNE) 2,540 6.5 -18.1°
Reaches altitude 10° 05:43:30 10° 59° (ENE) 1,646 5.9 -17.6°
Maximum altitude 05:45:19 13° 90° (E) 1,436 6.1 -17.3°
Drops below altitude 10° 05:47:06 10° 121° (ESE) 1,629 6.3 -17.1°
Sets 05:50:01 0° 149° (SSE) 2,493 6.8 -16.6°
